SQ7PKP-15 Weather Reports


time (UTC)temp
F
wind
direction
speed
knots
gust
knots
rain 1hr
in
rain 24hr
in
rain mn
in
humidity
%
barometer
mb
20260905183737 55 0.0 0.0 0.00 0.00 0.00 10 1017.4
20260905182737 56 0.0 0.0 0.00 0.00 0.00 10 1017.6
20260905181737 56 0.0 0.0 0.00 0.00 0.00 10 1017.0
20260905180737 56 0.0 0.0 0.00 0.00 0.00 10 1017.1
20260905175737 56 0.0 0.0 0.00 0.00 0.00 96 1016.9
20260905174737 57 0.0 0.0 0.00 0.00 0.00 94 1016.4
20260905173737 57 0.0 0.0 0.00 0.00 0.00 93 1016.7
20260905172737 57 0.0 0.0 0.00 0.00 0.00 91 1017.4
20260905171737 58 0.0 0.0 0.00 0.00 0.00 84 1018.3
20260905170738 60 0.0 0.0 0.00 0.00 0.00 76 1020.3
20260905165737 64 0.0 0.0 0.00 0.00 0.00 58 1016.6
20260905164737 65 0.0 0.0 0.00 0.00 0.00 59 1016.5
20260905163737 66 0.0 0.0 0.00 0.00 0.00 53 1015.8
20260905162737 67 0.0 0.0 0.00 0.00 0.00 51 1015.8
20260905161737 67 0.0 0.0 0.00 0.00 0.00 51 1015.4
20260905160737 68 0.0 0.0 0.00 0.00 0.00 50 1015.8
20260905155737 69 0.0 0.0 0.00 0.00 0.00 48 1015.4
20260905154737 69 0.0 0.0 0.00 0.00 0.00 47 1015.3
20260905153738 70 0.0 0.0 0.00 0.00 0.00 44 1014.4
20260905152737 70 0.0 0.0 0.00 0.00 0.00 44 1014.6
20260905151737 70 0.0 0.0 0.00 0.00 0.00 43 1014.5
20260905150738 70 0.0 0.0 0.00 0.00 0.00 43 1014.8
20260905145738 71 0.0 0.0 0.00 0.00 0.00 43 1014.2
20260905144737 70 0.0 0.0 0.00 0.00 0.00 46 1014.8
20260905143740 71 0.0 0.0 0.00 0.00 0.00 46 1014.5
20260905142737 71 0.0 0.0 0.00 0.00 0.00 44 1014.3
20260905141737 71 0.0 0.0 0.00 0.00 0.00 45 1013.4
20260905140737 70 0.0 0.0 0.00 0.00 0.00 48 1014.7
20260905135737 70 0.0 0.0 0.00 0.00 0.00 46 1014.2
20260905134737 70 0.0 0.0 0.00 0.00 0.00 49 1014.4
20260905133737 70 0.0 0.0 0.00 0.00 0.00 49 1014.4
20260905132738 69 0.0 0.0 0.00 0.00 0.00 49 1014.1
20260905131737 69 0.0 0.0 0.00 0.00 0.00 50 1014.4
20260905130738 69 0.0 0.0 0.00 0.00 0.00 51 1014.1
20260905125738 68 0.0 0.0 0.00 0.00 0.00 53 1013.9
20260905124737 67 0.0 0.0 0.00 0.00 0.00 55 1014.1
20260905123737 66 0.0 0.0 0.00 0.00 0.00 55 1016.1
20260905122738 67 0.0 0.0 0.00 0.00 0.00 52 1016.4
20260905121737 69 0.0 0.0 0.00 0.00 0.00 49 1014.3
20260905120737 69 0.0 0.0 0.00 0.00 0.00 50 1014.5
20260905115737 69 0.0 0.0 0.00 0.00 0.00 52 1014.6
20260905114738 68 0.0 0.0 0.00 0.00 0.00 51 1014.5
20260905113737 68 0.0 0.0 0.00 0.00 0.00 51 1014.3
20260905112737 67 0.0 0.0 0.00 0.00 0.00 52 1014.8
20260905111737 67 0.0 0.0 0.00 0.00 0.00 54 1015.4
20260905110737 67 0.0 0.0 0.00 0.00 0.00 51 1015.0
20260905105737 67 0.0 0.0 0.00 0.00 0.00 51 1015.1
20260905104737 68 0.0 0.0 0.00 0.00 0.00 51 1014.6
20260905103737 67 0.0 0.0 0.00 0.00 0.00 55 1014.3
20260905102737 67 0.0 0.0 0.00 0.00 0.00 57 1014.6
20260905101737 67 0.0 0.0 0.00 0.00 0.00 56 1015.0
20260905100737 67 0.0 0.0 0.00 0.00 0.00 59 1014.1
20260905095737 66 0.0 0.0 0.00 0.00 0.00 60 1015.0
20260905094737 66 0.0 0.0 0.00 0.00 0.00 61 1013.8
20260905093737 66 0.0 0.0 0.00 0.00 0.00 63 1015.1
20260905092737 66 0.0 0.0 0.00 0.00 0.00 60 1014.3
20260905091737 65 0.0 0.0 0.00 0.00 0.00 62 1014.2
20260905090737 65 0.0 0.0 0.00 0.00 0.00 65 1013.9
20260905085737 65 0.0 0.0 0.00 0.00 0.00 65 1013.8
20260905084738 64 0.0 0.0 0.00 0.00 0.00 70 1014.2
20260905083737 64 0.0 0.0 0.00 0.00 0.00 73 1014.2
20260905082737 64 0.0 0.0 0.00 0.00 0.00 72 1013.5
20260905081737 63 0.0 0.0 0.00 0.00 0.00 74 1012.8
20260905080737 62 0.0 0.0 0.00 0.00 0.00 76 1014.4
20260905075737 62 0.0 0.0 0.00 0.00 0.00 79 1014.3
20260905074737 62 0.0 0.0 0.00 0.00 0.00 79 1014.3
20260905073737 63 0.0 0.0 0.00 0.00 0.00 83 1013.0
20260905072737 62 0.0 0.0 0.00 0.00 0.00 85 1013.8
20260905071738 62 0.0 0.0 0.00 0.00 0.00 84 1013.7
20260905070737 61 0.0 0.0 0.00 0.00 0.00 86 1013.2
20260905065737 61 0.0 0.0 0.00 0.00 0.00 87 1013.2
20260905064737 61 0.0 0.0 0.00 0.00 0.00 90 1013.5
20260905063737 61 0.0 0.0 0.00 0.00 0.00 91 1013.1
20260905062737 61 0.0 0.0 0.00 0.00 0.00 95 1012.7
20260905061737 60 0.0 0.0 0.00 0.00 0.00 94 1013.0
20260905060737 60 0.0 0.0 0.00 0.00 0.00 96 1012.9
20260905055737 60 0.0 0.0 0.00 0.00 0.00 98 1012.7
20260905054737 59 0.0 0.0 0.00 0.00 0.00 10 1012.6
20260905053737 59 0.0 0.0 0.00 0.00 0.00 10 1012.7
20260905052737 59 0.0 0.0 0.00 0.00 0.00 10 1012.7
20260905051737 59 0.0 0.0 0.00 0.00 0.00 10 1012.7
20260905050737 59 0.0 0.0 0.00 0.00 0.00 10 1012.3
20260905045737 59 0.0 0.0 0.00 0.00 0.00 10 1012.2
20260905044737 59 0.0 0.0 0.00 0.00 0.00 10 1012.1
20260905043737 59 0.0 0.0 0.00 0.00 0.00 10 1012.0
20260905042737 59 0.0 0.0 0.00 0.00 0.00 10 1012.2
20260905041737 59 0.0 0.0 0.00 0.00 0.00 10 1011.9
20260905040737 59 0.0 0.0 0.00 0.00 0.00 10 1011.9
20260905035737 59 0.0 0.0 0.00 0.00 0.00 10 1011.7
20260905034737 59 0.0 0.0 0.00 0.00 0.00 10 1011.5
20260905033737 59 0.0 0.0 0.00 0.00 0.00 10 1011.6
20260905032737 59 0.0 0.0 0.00 0.00 0.00 10 1011.2
20260905031737 59 0.0 0.0 0.00 0.00 0.00 10 1011.3
20260905030737 60 0.0 0.0 0.00 0.00 0.00 10 1011.0
20260905025737 60 0.0 0.0 0.00 0.00 0.00 10 1010.7
20260905024737 60 0.0 0.0 0.00 0.00 0.00 10 1010.7
20260905023737 60 0.0 0.0 0.00 0.00 0.00 10 1010.6
20260905022737 60 0.0 0.0 0.00 0.00 0.00 10 1010.5
20260905021737 60 0.0 0.0 0.00 0.00 0.00 10 1010.4
20260905020737 60 0.0 0.0 0.00 0.00 0.00 10 1010.4
20260905015737 60 0.0 0.0 0.00 0.00 0.00 10 1010.7
20260905014737 60 0.0 0.0 0.00 0.00 0.00 10 1010.3
20260905013737 60 0.0 0.0 0.00 0.00 0.00 10 1010.1
20260905012737 60 0.0 0.0 0.00 0.00 0.00 10 1010.4
20260905011737 60 0.0 0.0 0.00 0.00 0.00 10 1010.2
20260905010737 60 0.0 0.0 0.00 0.00 0.00 10 1010.0
20260905005737 60 0.0 0.0 0.00 0.00 0.00 10 1010.2
20260905004737 60 0.0 0.0 0.00 0.00 0.00 10 1009.7
20260905003737 60 0.0 0.0 0.00 0.00 0.00 10 1009.5
20260905002737 60 0.0 0.0 0.00 0.00 0.00 10 1010.0
20260905001737 60 0.0 0.0 0.00 0.00 0.00 10 1010.0
20260905000737 60 0.0 0.0 0.00 0.00 0.00 10 1009.6
20260904235737 60 0.0 0.0 0.00 0.00 0.00 10 1009.4
20260904234737 60 0.0 0.0 0.00 0.00 0.00 10 1009.0
20260904233737 60 0.0 0.0 0.00 0.00 0.00 10 1009.3
20260904232737 60 0.0 0.0 0.00 0.00 0.00 10 1009.4
20260904231737 60 0.0 0.0 0.00 0.00 0.00 10 1009.2
20260904230737 61 0.0 0.0 0.00 0.00 0.00 10 1009.1
20260904225737 61 0.0 0.0 0.00 0.00 0.00 10 1008.8
20260904224737 62 0.0 0.0 0.00 0.00 0.00 10 1008.6
20260904223737 62 0.0 0.0 0.00 0.00 0.00 10 1008.1
20260904222737 63 0.0 0.0 0.00 0.00 0.00 10 1008.1
20260904221737 63 0.0 0.0 0.00 0.00 0.00 10 1008.0
20260904220737 63 0.0 0.0 0.00 0.00 0.00 10 1007.1
20260904215737 63 0.0 0.0 0.00 0.00 0.00 10 1007.3
20260904214737 64 0.0 0.0 0.00 0.00 0.00 10 1007.4
20260904213737 64 0.0 0.0 0.00 0.00 0.00 10 1007.3
20260904212737 64 0.0 0.0 0.00 0.00 0.00 10 1007.4
20260904211737 64 0.0 0.0 0.00 0.00 0.00 10 1007.4
20260904210737 64 0.0 0.0 0.00 0.00 0.00 10 1007.0
20260904205737 64 0.0 0.0 0.00 0.00 0.00 10 1007.6
20260904204737 64 0.0 0.0 0.00 0.00 0.00 10 1007.7
20260904203737 64 0.0 0.0 0.00 0.00 0.00 10 1007.5
20260904202737 64 0.0 0.0 0.00 0.00 0.00 10 1007.2
20260904201737 64 0.0 0.0 0.00 0.00 0.00 10 1007.4
20260904200737 64 0.0 0.0 0.00 0.00 0.00 10 1007.6
20260904195737 64 0.0 0.0 0.00 0.00 0.00 10 1008.0
20260904194737 65 0.0 0.0 0.00 0.00 0.00 10 1008.2
20260904193737 65 0.0 0.0 0.00 0.00 0.00 10 1009.0
20260904192737 67 0.0 0.0 0.00 0.00 0.00 10 1011.0
20260904191737 71 0.0 0.0 0.00 0.00 0.00 82 1008.7
20260904190737 74 0.0 0.0 0.00 0.00 0.00 66 1005.0
20260904185737 74 0.0 0.0 0.00 0.00 0.00 66 1004.6
20260904184737 73 0.0 0.0 0.00 0.00 0.00 66 1004.7